Flag for United Kingdom Weather past 2 weeks in Plymouth, England, United Kingdom

Now
61 °F

Passing clouds.


Feels Like: 61 °F
Forecast: 53 / 67 °F
Wind: 3 mph from Southeast

Location: Exeter Airport

Current Time: Aug 1, 2014 at 4:25:15 AM

Latest Report: Aug 1, 2014 at 1:50 AM


Visibility: N/A

Pressure: 29.89 "Hg

Humidity: 88%

Dew point: 57 °F

Location of PlymouthLocation

Historic Weather in Plymouth — Graph

°F

Plymouth temperature yesterday

Maximum temperature yesterday: 72 °F (at 3:50 PM)
Minimum temperature yesterday: 59 °F (at 6:20 AM)
Average temperature yesterday: 66 °F

Past Weeks' High & Low Weather Summary

 TemperatureHumidityPressure
High81 °F (Jul 24, 2:20 PM)100% (Jul 19, 2:50 AM)30.21 "Hg (Jul 19, 2:50 AM)
Low52 °F (Jul 30, 6:20 AM)44% (Jul 28, 5:50 PM)29.74 "Hg (Jul 19, 11:50 AM)
Average68 °F74%30.01 "Hg
* Reported Jul 17 1:20 AM — Aug 1 1:50 AM, Plymouth, Weather by CustomWeather, © 2014

Note: Actual official high and low records may vary slightly from our data, if they occured in-between our weather recording intervals... More about our weather records

Advertising

Plymouth weather history for previous 24 hours

 ConditionsComfort  
Time TempWeatherWind HumidityBarometerVisibility
1:50 AM
Aug 1
61 °FPassing clouds.3 mph88%29.89 "HgN/A
1:20 AM61 °FPassing clouds.5 mph88%29.89 "HgN/A
12:50 AM61 °FPassing clouds.3 mph88%29.89 "HgN/A
12:20 AM59 °FPassing clouds.No wind88%29.89 "HgN/A
11:50 PM
Jul 31
61 °FPassing clouds.2 mph88%29.89 "HgN/A
11:20 PM61 °FPassing clouds.2 mph83%29.89 "HgN/A
10:50 PM61 °FPassing clouds.2 mph83%29.89 "HgN/A
10:20 PM63 °FPassing clouds.2 mph77%29.92 "HgN/A
9:50 PM63 °FPassing clouds.2 mph77%29.92 "HgN/A
9:20 PM64 °FPassing clouds.1 mph78%29.92 "HgN/A
8:50 PM66 °FPassing clouds.7 mph73%29.92 "HgN/A
8:20 PM68 °FPassing clouds.7 mph69%29.92 "HgN/A
7:50 PM70 °FPassing clouds.9 mph64%29.92 "HgN/A
7:20 PM70 °FPassing clouds.10 mph60%29.89 "HgN/A
6:50 PM70 °FPassing clouds.12 mph64%29.92 "HgN/A
6:20 PM72 °FPassing clouds.10 mph61%29.92 "HgN/A
5:50 PM70 °FPassing clouds.10 mph64%29.92 "HgN/A
5:20 PM72 °FScattered clouds.10 mph61%29.92 "HgN/A
4:50 PM72 °FScattered clouds.10 mph65%29.92 "HgN/A
4:20 PM72 °FScattered clouds.13 mph65%29.95 "HgN/A
3:50 PM72 °FScattered clouds.7 mph65%29.95 "HgN/A
3:20 PM70 °FScattered clouds.9 mph69%29.95 "HgN/A
2:50 PM70 °FScattered showers. Scattered clouds.12 mph69%29.95 "HgN/A
2:20 PM68 °FScattered showers. Partly sunny.5 mph78%29.95 "HgN/A
1:50 PM70 °FSprinkles. Partly sunny.9 mph69%29.95 "HgN/A
1:20 PM70 °FScattered clouds.7 mph69%29.95 "HgN/A
12:50 PM68 °FScattered clouds.3 mph73%29.95 "HgN/A
12:20 PM66 °FScattered clouds.3 mph78%29.98 "HgN/A
11:50 AM64 °FScattered clouds.1 mph88%29.98 "HgN/A
11:20 AM64 °FSprinkles. Partly sunny.5 mph83%29.98 "HgN/A
10:50 AM64 °FSprinkles. Partly sunny.5 mph83%29.98 "HgN/A
10:20 AM64 °FScattered showers. Partly sunny.7 mph78%29.98 "HgN/A
9:50 AM64 °FPartly sunny.5 mph73%30.01 "HgN/A
9:20 AM64 °FPartly sunny.6 mph73%30.01 "HgN/A
8:50 AM63 °FPartly sunny.5 mph77%30.01 "HgN/A
8:20 AM63 °FPartly sunny.6 mph73%30.01 "HgN/A
7:50 AM63 °FPartly sunny.6 mph73%30.01 "HgN/A
7:20 AM61 °FPartly sunny.6 mph77%30.01 "HgN/A
6:50 AM59 °FPassing clouds.5 mph82%30.01 "HgN/A
6:20 AM59 °FPassing clouds.5 mph82%30.01 "HgN/A
Weather by CustomWeather, © 2014

See weather overviewHow to use our weather pages